User: anonymous   Login
Location: Unspecified
(0.0000°N, 0.0000°E)
Time: 21:29:59
(UTC+00:00)
Language:

UWE-1 - Orbit

View from above orbital plane
View from above orbital plane
View from above satellite
View from above satellite

Ground track
Ground track

The orbit data is extracted from the following two-line orbital elements,

1 28892U 05043C   18343.90279478 +.00000110 +00000-0 +30001-4 0  9996
2 28892 097.9387 127.4054 0015322 231.3835 128.5996 14.63552296699428
Epoch (UTC): 09 December 2018 21:40:01
Eccentricity: 0.0015322
inclination: 97.9387°
perigee height: 671 km
apogee height: 692 km
right ascension of ascending node: 127.4054°
argument of perigee: 231.3835°
revolutions per day: 14.63552296
mean anomaly at epoch: 128.5996°
orbit number at epoch: 69942

The dashed part of the orbit path shows where the satellite is in the earth's shadow,  

DLR